Weather History for Seattle, WA

Change the Weather History Date:

Tuesday, November 26, 2013

  Actual Average Record
Temperature  
Mean Temperature 46 °F 43 °F  
Max Temperature 54 °F 48 °F 61 °F (1949)
Min Temperature 37 °F 38 °F 25 °F (1952)
Degree Days  
Heating Degree Days 19 22  
Month to date heating degree days 436 497  
Since 1 July heating degree days 952 1094  
Cooling Degree Days 0 0  
Month to date cooling degree days 0 0  
Year to date cooling degree days 385 189  
Moisture  
Dew Point 36 °F    
Average Humidity 73    
Maximum Humidity 92    
Minimum Humidity 54    
Precipitation  
Precipitation T in 0.22 in 1.34 in (2009)
Month to date precipitation 3.68 5.69  
Year to date precipitation 30.79 31.26  
Snow  
Snow 0.00 in - 2.20 in (1964)
Month to date snowfall 0.0  
Since 1 July snowfall 0.0  
Snow Depth 0.00 in    
Sea Level Pressure  
Sea Level Pressure 30.21 in    
Wind  
Wind Speed 2 mph (SSE)    
Max Wind Speed 9 mph    
Max Gust Speed 12 mph    
Visibility 5 miles    
Events Fog , Rain    
T = Trace of Precipitation, MM = Missing Value Source: NWS Daily Summary

Daily Weather History Graph

Daily Weather History Graph

Search for Another Location

Airport:

Trip Planner

Search our weather history database for the weather conditions in past years. The results will help you decide how hot, cold, wet, or windy it might be!

Date:

Astronomy

Nov. 26, 2013 Rise Set
Actual Time 7:29 AM PST 4:23 PM PST
Civil Twilight 6:55 AM PST 4:57 PM PST
Nautical Twilight 6:17 AM PST 5:35 PM PST
Astronomical Twilight 5:40 AM PST 6:12 PM PST
Moon 12:12 AM PST (11/26) 12:57 PM PST (11/26)
Length of Visible Light 10h 02m
Length of Day
8h 53m
Last Quarter, 40% of the Moon is Illuminated
Nov 26
Last Quarter
Dec 2
New
Dec 9
First Quarter
Dec 17
Full
Dec 25
Last Quarter

Hourly Weather History & Observations

Time (PST) Temp. Windchill Dew Point Humidity Pressure Visibility Wind Dir Wind Speed Gust Speed Precip Events Conditions
12:53 AM 39.0 °F - 34.0 °F 82% 30.29 in 10.0 mi Calm Calm - N/A   Mostly Cloudy
1:53 AM 39.9 °F - 34.0 °F 79% 30.27 in 10.0 mi Calm Calm - N/A   Mostly Cloudy
2:40 AM 37.4 °F - 33.8 °F 87% 30.25 in 2.5 mi Calm Calm - N/A   Clear
2:42 AM 37.4 °F - 33.8 °F 87% 30.25 in 0.2 mi Calm Calm - N/A Fog Fog
2:53 AM 39.0 °F - 35.1 °F 86% 30.27 in 0.2 mi Calm Calm - N/A Fog Fog
3:01 AM 39.2 °F - 35.6 °F 87% 30.25 in 0.2 mi Calm Calm - N/A Fog Fog
3:44 AM 39.2 °F - 35.6 °F 87% 30.24 in 0.1 mi Calm Calm - N/A Fog Fog
3:53 AM 39.9 °F - 37.0 °F 89% 30.27 in 0.1 mi Calm Calm - N/A Fog Fog
4:53 AM 39.9 °F - 37.0 °F 89% 30.25 in 0.1 mi Calm Calm - N/A Fog Fog
5:53 AM 41.0 °F - 37.0 °F 86% 30.24 in 0.1 mi Calm Calm - N/A Fog Fog
6:20 AM 39.2 °F 37.0 °F 35.6 °F 87% 30.22 in 0.2 mi SSE 3.5 mph - N/A Fog Fog
6:37 AM 39.2 °F - 35.6 °F 87% 30.23 in 0.2 mi Calm Calm - N/A Fog Fog
6:53 AM 39.0 °F - 36.0 °F 89% 30.25 in 0.1 mi Calm Calm - N/A Fog Fog
7:53 AM 39.9 °F 36.7 °F 36.0 °F 86% 30.25 in 0.1 mi SSE 4.6 mph - N/A Fog Fog
8:00 AM 39.2 °F 35.9 °F 35.6 °F 87% 30.22 in 0.1 mi SE 4.6 mph - N/A Fog Fog
8:11 AM 39.2 °F 35.0 °F 35.6 °F 87% 30.22 in 0.1 mi ESE 5.8 mph - N/A Fog Fog
8:23 AM 37.4 °F 32.8 °F 33.8 °F 87% 30.22 in 0.1 mi ESE 5.8 mph - N/A Fog Fog
8:53 AM 37.9 °F 33.5 °F 35.1 °F 89% 30.25 in 0.8 mi SE 5.8 mph - N/A   Mostly Cloudy
8:59 AM 37.4 °F 33.8 °F 35.6 °F 93% 30.23 in 3.0 mi SSW 4.6 mph - N/A   Mostly Cloudy
9:53 AM 39.9 °F 36.7 °F 35.1 °F 83% 30.24 in 3.0 mi SSE 4.6 mph - N/A Fog Patches of Fog
10:53 AM 44.1 °F 42.5 °F 36.0 °F 73% 30.22 in 10.0 mi SSE 3.5 mph - N/A   Mostly Cloudy
11:53 AM 48.0 °F - 36.0 °F 63% 30.21 in 10.0 mi West 5.8 mph - N/A   Scattered Clouds
12:53 PM 48.9 °F - 39.0 °F 69% 30.19 in 10.0 mi Calm Calm - N/A   Scattered Clouds
1:53 PM 54.0 °F - 37.9 °F 55% 30.17 in 10.0 mi Calm Calm - N/A   Scattered Clouds
2:53 PM 53.1 °F - 37.9 °F 57% 30.17 in 10.0 mi West 3.5 mph - N/A   Mostly Cloudy
3:53 PM 51.1 °F - 37.0 °F 59% 30.16 in 10.0 mi Calm Calm - N/A   Mostly Cloudy
4:53 PM 48.9 °F - 39.0 °F 69% 30.17 in 10.0 mi WSW 3.5 mph - 0.00 in Rain Light Rain
5:53 PM 50.0 °F - 37.9 °F 63% 30.17 in 10.0 mi SE 3.5 mph - 0.00 in Rain Light Rain
6:53 PM 50.0 °F - 35.1 °F 57% 30.17 in 10.0 mi SE 9.2 mph - 0.00 in   Overcast
7:53 PM 50.0 °F - 36.0 °F 59% 30.17 in 10.0 mi SSE 6.9 mph - N/A   Overcast
8:53 PM 50.0 °F - 36.0 °F 59% 30.16 in 10.0 mi Calm Calm - N/A   Overcast
9:53 PM 51.1 °F - 36.0 °F 56% 30.15 in 10.0 mi SE 5.8 mph - N/A   Overcast
10:53 PM 50.0 °F - 37.9 °F 63% 30.14 in 10.0 mi Calm Calm - N/A   Overcast
11:53 PM 48.9 °F - 37.9 °F 66% 30.13 in 10.0 mi Calm Calm - N/A   Overcast